Theta_e
357 354 352 353 352 351 351 350 350 352 353 352 351 350 350 358 369 374 373 368 353 346 348 349 355 357 351 354 359 358 357 358 357 354 356 363 362 356 356 359 359 357 354 352 350 346 342 340 339 339 337 333 330 327 322 319 320 321 319 318 317 316 317 320 325 330 332 330 328 327 326 331 336 336
359 355 352 352 352 351 351 349 349 352 355 352 351 351 348 350 360 366 373 373 359 350 350 349 353 357 353 353 355 356 357 356 356 355 355 362 362 358 358 360 360 359 355 354 352 350 346 342 340 339 336 333 330 326 322 320 321 321 319 318 317 316 316 318 324 330 331 329 327 327 331 335 337 337
360 357 354 353 352 352 352 350 350 352 355 353 351 351 350 352 355 354 363 371 363 353 351 350 350 352 351 350 350 353 354 353 356 357 355 360 362 359 360 360 360 360 357 355 354 351 350 346 343 341 338 334 330 326 322 320 321 321 319 318 317 316 317 317 322 329 331 328 327 329 335 337 337 338
359 358 357 356 354 354 353 352 351 352 354 354 353 352 351 351 354 354 356 364 363 356 355 354 350 348 349 349 352 355 353 354 358 358 356 359 361 359 360 361 361 360 358 357 354 351 351 349 347 344 341 336 332 328 323 321 322 321 319 318 317 316 317 317 320 328 331 328 328 333 337 339 338 339
358 358 359 358 357 356 355 354 353 351 353 355 354 353 352 351 353 355 356 359 360 359 357 356 351 349 348 347 350 354 355 356 359 357 355 358 358 358 360 361 361 360 359 358 356 352 350 350 349 348 345 340 335 330 325 322 322 321 319 317 317 315 317 318 319 326 330 328 329 334 338 339 339 339
358 359 360 361 360 359 357 356 355 352 351 353 354 354 353 354 352 352 354 356 358 360 359 358 355 353 351 349 351 355 355 357 357 355 356 358 360 362 363 361 359 361 360 358 356 353 351 349 350 350 348 345 340 335 329 324 322 322 319 318 316 316 317 317 319 323 329 330 329 333 338 338 339 339
359 359 360 361 361 360 359 358 357 354 351 351 352 352 352 353 351 351 351 352 355 359 360 359 359 357 354 354 355 356 356 356 356 356 359 359 358 361 362 359 358 360 360 358 357 355 353 351 350 350 349 348 345 340 333 328 324 321 320 318 316 316 316 318 318 320 326 331 330 332 336 337 338 339
359 358 358 359 360 359 358 358 357 356 354 352 351 351 351 350 351 351 352 352 354 358 361 360 360 359 358 357 356 356 356 357 357 357 358 359 356 358 359 358 358 360 360 359 357 355 354 353 352 350 349 348 347 344 340 334 327 322 320 319 317 316 316 317 318 318 323 330 332 331 332 334 336 337
356 356 356 356 357 358 356 356 356 356 356 354 352 351 350 351 351 351 351 352 353 356 358 360 361 362 362 361 359 358 358 358 359 358 356 357 358 359 360 359 360 359 359 358 356 356 355 355 353 351 350 349 348 347 345 339 332 324 320 319 317 316 316 316 317 317 319 324 331 333 333 333 333 335
354 354 354 355 355 356 356 355 355 356 356 355 353 352 351 352 351 351 352 352 353 354 357 360 363 364 363 362 359 359 360 360 360 359 356 355 353 356 360 362 361 359 359 358 356 355 356 355 354 351 350 350 349 348 347 342 336 329 322 320 318 316 316 316 316 317 318 319 325 330 333 334 334 335
353 353 353 354 353 354 356 355 355 355 355 355 354 353 352 352 353 353 354 354 355 357 359 361 363 363 362 361 359 359 360 359 359 361 359 357 356 358 362 363 362 361 360 358 356 355 356 355 354 351 350 350 349 349 347 343 338 334 326 320 319 317 316 315 315 316 317 317 320 323 327 330 331 331
351 351 350 351 351 351 354 353 354 354 354 355 354 354 354 353 354 355 356 356 357 358 361 362 362 362 361 362 361 360 358 355 356 358 358 360 362 362 361 360 361 362 360 360 359 356 354 354 353 352 351 351 350 349 347 343 340 339 331 322 319 319 316 316 316 316 316 317 317 319 321 323 324 324
349 350 349 348 348 349 350 351 352 352 353 353 354 354 355 354 354 355 356 358 357 358 360 360 360 361 360 360 360 358 356 355 356 357 358 360 361 359 358 358 359 360 361 361 360 357 356 355 354 352 352 351 351 349 348 344 341 341 337 325 320 320 318 316 316 316 315 316 316 317 319 320 321 321
348 348 347 347 346 345 346 348 350 350 350 351 353 354 355 355 354 355 357 358 358 359 360 360 358 359 359 358 357 357 356 356 356 358 358 360 358 357 358 359 357 357 358 358 359 359 359 357 355 353 352 352 352 350 348 344 341 342 340 330 321 320 319 317 317 316 316 316 315 316 318 319 320 321
347 347 346 345 345 344 344 345 346 348 349 349 350 350 353 356 356 357 358 359 359 360 361 360 358 358 358 357 356 356 355 354 353 354 354 354 356 357 358 360 358 356 356 357 359 359 360 358 357 356 355 355 355 352 348 345 342 342 342 335 324 320 320 318 317 318 317 316 315 315 316 318 319 320
346 346 345 344 342 342 341 343 343 345 347 348 349 349 349 351 354 355 357 359 360 360 362 360 359 358 357 358 357 356 353 353 351 350 349 348 349 352 354 356 356 355 355 357 360 359 358 359 360 360 359 357 356 353 349 346 343 343 344 339 328 321 320 319 317 318 318 317 316 315 315 317 318 319
343 345 345 345 343 340 339 340 341 343 344 345 347 348 348 347 348 350 352 355 358 360 361 361 360 359 358 357 356 355 354 352 351 350 350 349 349 351 353 353 353 353 356 358 360 359 357 357 359 360 359 359 358 355 351 346 343 344 346 343 332 322 320 320 318 319 319 317 317 315 315 316 317 318
343 344 345 346 345 344 342 341 340 341 345 346 346 346 349 349 347 348 348 349 351 354 358 360 358 357 357 357 357 356 354 354 353 352 351 350 351 352 352 353 354 354 355 356 359 359 355 355 358 358 358 360 358 356 351 346 345 347 348 346 338 325 320 320 319 319 319 318 316 316 315 315 316 318
344 345 347 348 348 348 347 346 343 343 346 350 351 349 348 349 349 349 349 348 346 345 346 351 352 349 349 351 353 353 353 351 351 350 349 350 352 354 355 356 356 353 352 352 355 357 353 353 357 358 357 356 354 353 349 346 347 349 348 347 341 330 321 320 320 319 319 318 316 315 315 316 316 317
345 344 346 348 351 352 352 351 350 347 346 351 355 356 353 353 354 353 352 351 347 341 337 338 340 339 338 340 343 346 348 349 349 350 352 354 356 358 359 359 358 357 355 351 353 356 354 353 357 359 356 353 351 351 349 347 348 349 347 346 343 334 324 321 320 320 320 318 317 315 315 317 319 318
350 349 348 347 349 352 353 354 355 353 350 350 354 358 360 361 363 362 359 356 353 349 344 339 336 334 334 334 336 338 342 345 348 353 358 360 359 359 360 361 360 358 353 349 348 352 353 354 356 359 357 352 349 349 350 349 349 349 346 346 344 337 327 321 320 320 320 319 317 315 315 318 322 324
352 353 353 351 350 350 351 353 355 357 356 353 352 355 358 362 363 364 363 361 358 356 354 350 347 343 341 339 338 338 339 340 342 348 354 356 358 357 357 356 354 351 348 345 345 347 348 352 356 359 357 352 348 348 350 350 348 347 346 344 343 338 328 321 321 321 320 320 318 316 315 317 323 328
354 354 354 354 354 353 351 351 352 355 357 358 355 353 356 358 359 360 361 360 359 357 357 355 355 352 351 349 347 344 343 341 342 345 348 351 354 355 353 351 351 351 349 345 344 345 347 349 353 356 356 354 350 347 347 348 348 347 346 343 343 338 329 322 321 320 320 320 319 317 315 317 324 329
356 356 356 356 355 355 354 354 353 352 355 358 359 358 357 357 357 357 358 358 357 357 357 357 356 355 354 354 353 351 350 347 346 345 346 348 352 354 354 352 351 352 350 344 343 345 346 347 349 350 352 355 352 346 344 347 346 345 344 343 342 338 330 324 321 320 320 320 319 317 316 317 323 329
357 357 358 358 358 357 357 356 356 354 354 356 359 360 359 358 357 356 358 358 356 356 356 357 359 358 357 356 356 355 355 353 351 350 348 348 348 350 352 353 352 351 348 344 344 346 346 345 347 347 348 351 351 347 343 342 344 344 342 343 342 338 333 329 324 321 320 320 320 319 316 316 319 324
357 358 358 359 360 360 360 359 359 358 357 356 356 358 359 359 359 358 358 358 358 358 357 358 361 363 361 360 359 359 358 358 357 357 357 354 349 348 348 348 349 349 346 343 345 347 347 348 348 349 350 351 352 350 344 339 340 342 341 340 342 340 335 332 328 324 323 323 322 319 316 315 316 318
358 358 359 360 360 361 361 361 361 361 361 359 357 357 357 358 360 360 360 359 360 360 359 360 361 363 363 363 363 361 361 361 361 361 360 358 355 351 349 348 347 346 343 342 343 345 349 353 354 354 353 354 355 355 351 345 343 341 339 339 340 339 336 333 331 328 327 326 325 321 318 318 316 315
359 360 359 359 359 359 360 360 361 361 362 361 360 359 358 358 357 360 360 361 361 360 361 361 361 362 362 363 363 362 361 361 360 359 359 358 357 357 356 354 351 350 346 345 346 346 348 352 355 356 356 355 357 357 356 354 351 345 342 340 339 339 338 335 332 330 330 330 329 325 324 323 321 317
358 359 360 359 358 358 358 359 360 360 360 360 361 361 360 359 358 358 359 360 360 361 361 360 360 360 361 360 360 360 359 359 358 357 356 355 355 356 357 357 356 354 352 351 350 351 352 352 354 356 357 356 358 358 357 357 356 351 346 341 339 338 337 334 333 332 332 332 331 329 327 328 326 323
356 356 357 357 357 357 357 358 359 359 359 360 361 361 361 360 359 358 358 358 360 360 360 359 359 358 358 358 357 358 358 358 358 357 356 354 354 355 357 358 358 357 356 354 354 354 355 355 355 356 358 358 359 359 359 358 358 356 351 346 342 339 336 333 333 333 333 333 332 330 329 330 329 327
356 356 356 356 356 355 355 357 357 357 358 358 359 360 360 360 360 359 358 358 358 360 359 358 358 357 357 357 357 357 357 358 357 357 356 356 356 354 354 358 359 359 358 358 357 356 356 356 356 357 357 359 359 360 360 359 359 358 355 350 345 341 337 334 333 333 333 331 331 330 331 331 331 329
356 356 356 356 355 354 354 354 354 354 355 356 356 358 359 360 360 360 359 357 357 358 358 358 358 357 358 358 357 357 357 357 357 357 356 356 356 355 355 356 358 359 360 360 360 359 358 359 359 358 358 359 359 361 361 360 360 359 357 352 347 342 338 336 333 332 332 332 331 331 331 331 330 329
356 355 353 351 351 352 352 352 353 355 356 356 356 357 358 359 360 360 359 357 357 357 358 358 358 358 358 358 358 358 358 357 358 357 358 358 357 356 356 356 357 358 359 360 360 361 361 360 360 361 361 360 360 361 361 361 360 360 359 356 351 345 340 336 334 333 333 332 331 331 331 331 330 329
354 352 349 348 349 350 350 351 353 356 358 359 360 359 359 358 358 359 359 358 357 358 357 357 357 358 358 358 358 358 358 357 357 358 358 359 359 358 357 358 359 359 359 360 359 361 361 362 361 362 361 361 361 361 362 361 360 360 359 358 355 351 344 338 336 334 333 333 332 332 332 332 331 330
353 351 348 348 349 349 350 351 353 354 357 359 360 361 361 360 359 359 359 359 358 358 357 357 357 357 357 358 358 358 358 357 357 357 358 360 360 361 360 360 360 360 361 361 360 359 361 361 362 363 363 362 362 362 361 361 361 361 359 358 357 354 346 339 336 335 333 333 333 332 332 333 332 331
352 351 349 348 349 349 350 352 353 354 356 358 359 361 362 361 361 360 359 359 358 358 357 357 357 357 357 357 358 358 358 358 357 357 358 360 362 363 362 362 362 362 362 363 361 360 360 362 363 363 363 361 362 361 360 360 360 360 359 357 356 355 348 340 337 336 334 334 333 332 332 333 333 332
352 351 350 348 349 350 351 353 354 355 356 357 358 360 361 362 362 361 360 358 358 357 357 357 356 357 357 357 357 357 358 358 358 357 357 359 361 363 363 363 363 363 362 363 363 361 361 362 364 363 362 361 361 361 359 358 358 358 358 357 355 353 348 341 337 337 336 335 334 333 332 332 332 333
351 351 351 351 351 351 351 352 354 355 357 358 360 361 362 362 362 362 361 360 359 357 357 358 357 358 357 357 357 357 357 357 358 358 358 358 359 361 362 363 362 362 362 362 363 363 362 362 364 363 361 361 361 359 358 356 356 356 356 356 355 353 348 342 338 337 336 336 335 333 334 333 332 332
351 351 351 352 352 352 353 353 354 355 357 358 359 359 360 359 359 359 360 360 359 357 357 357 358 359 359 358 358 359 359 359 359 358 358 358 358 358 358 357 355 355 355 355 357 360 362 362 363 363 361 360 360 359 357 357 356 355 355 355 355 353 349 343 340 337 337 336 336 335 334 334 333 332
352 351 351 352 353 353 354 354 355 355 355 355 355 356 356 356 356 356 356 356 356 355 355 356 358 358 358 359 359 359 359 357 357 357 357 357 357 356 354 352 350 351 352 351 353 358 362 362 362 362 361 360 359 359 358 357 356 355 354 353 354 353 351 347 343 339 337 337 337 337 336 335 334 334
349 349 349 351 352 353 354 354 355 355 356 356 356 356 356 357 357 357 356 356 356 356 356 356 355 356 358 359 358 355 354 354 355 355 354 354 353 353 353 352 350 351 352 351 353 357 361 362 361 361 361 360 360 359 357 355 355 354 353 352 351 352 352 350 347 342 339 337 337 337 337 336 334 333
349 350 350 350 351 352 353 354 355 355 356 358 358 358 357 357 357 357 356 355 356 356 356 356 355 355 356 355 352 351 354 356 355 352 352 352 352 353 353 351 350 351 352 352 354 358 361 360 360 361 360 360 360 357 355 354 354 354 352 350 349 349 349 349 347 344 339 337 336 337 336 335 334 333
347 348 348 349 350 352 352 353 354 355 356 356 355 355 355 356 356 355 355 356 356 356 357 356 357 356 354 351 351 354 356 356 355 353 352 352 352 352 352 352 352 352 353 353 355 358 360 360 360 360 359 359 358 357 355 354 353 353 352 350 348 346 346 346 345 342 340 337 336 336 336 336 335 335
342 343 344 344 345 346 347 349 351 352 353 353 353 353 353 353 353 353 354 355 355 355 355 355 355 354 353 351 353 355 356 355 354 354 354 353 353 353 353 353 353 353 353 354 356 357 359 359 359 358 357 358 356 356 355 354 353 352 351 350 347 345 345 344 341 340 339 339 337 336 336 336 335 335
333 337 340 341 342 340 339 341 344 346 347 348 349 350 350 350 351 352 353 353 354 354 355 355 355 355 354 354 354 354 354 354 353 353 353 354 354 354 354 353 353 352 354 354 356 357 359 359 358 357 356 356 355 355 354 353 352 351 350 349 347 345 343 342 340 339 338 338 336 335 335 334 333 333
Wind_Speed
6 6 7 7 7 6 6 5 4 3 1 2 1 2 2 3 1 2 2 2 3 5 0 7 7 2 3 3 3 4 5 7 6 6 6 7 7 9 8 4 3 5 7 9 9 7 6 5 6 7 9 10 11 11 10 11 13 14 15 15 15 15 15 15 16 18 21 20 16 13 12 12 12 11
6 6 7 8 7 6 6 5 6 6 4 4 3 3 1 1 0 0 1 2 3 8 8 1 4 3 2 2 2 5 4 6 7 6 5 9 10 10 9 6 4 4 6 9 9 7 6 6 6 7 8 10 11 11 10 12 13 15 15 15 16 16 16 16 16 18 20 18 14 12 12 12 11 10
7 7 6 6 7 7 7 8 8 6 5 5 6 6 3 2 2 1 1 1 2 5 9 8 3 1 0 2 1 4 4 7 8 5 5 10 12 12 11 7 5 4 5 7 9 8 7 7 6 7 8 9 10 10 10 12 13 15 16 16 16 16 16 16 16 18 19 16 13 12 11 11 11 10
7 8 7 7 8 8 7 8 8 6 6 6 7 7 5 4 5 4 4 3 4 6 9 10 7 6 6 4 2 4 6 8 7 5 5 8 11 12 11 8 7 6 5 6 8 8 7 7 7 7 8 9 10 10 10 12 13 15 15 16 16 16 16 16 15 16 18 15 12 10 10 10 10 10
8 8 9 9 9 9 8 8 8 8 7 8 9 9 8 8 8 8 8 8 7 8 8 9 8 8 8 7 6 5 6 7 6 6 7 10 14 14 11 9 8 7 7 6 8 8 7 8 8 8 8 9 10 10 11 12 13 14 15 16 16 16 16 15 15 15 16 14 11 9 9 9 9 9
9 9 10 10 10 10 10 10 10 10 9 10 11 12 11 10 10 11 12 10 7 8 9 9 9 9 9 9 8 6 6 8 9 9 8 10 14 14 10 9 10 9 8 7 8 9 8 9 9 9 9 9 10 11 11 12 13 14 15 16 16 16 16 15 14 14 15 14 11 8 8 8 8 9
11 11 11 11 10 11 11 12 12 11 11 11 12 13 13 14 14 14 14 13 10 10 11 10 10 10 10 9 7 7 9 10 11 10 8 8 10 10 9 9 12 11 9 8 9 10 9 9 8 8 10 10 10 11 12 12 13 13 14 16 16 16 15 15 14 13 13 13 11 8 7 7 7 8
13 13 13 13 12 12 13 13 13 13 13 13 13 12 11 13 14 12 12 13 13 11 11 11 11 11 11 11 10 10 11 11 10 10 10 10 10 8 8 10 13 12 9 9 10 10 10 9 8 8 9 10 10 10 12 13 13 13 14 15 16 15 15 15 14 13 12 12 11 10 8 7 7 7
14 15 15 14 14 14 14 15 14 14 14 14 14 14 13 13 14 12 11 12 12 12 13 14 13 12 12 12 12 12 11 11 10 10 11 11 11 10 9 9 11 10 10 11 11 10 11 10 8 7 8 8 8 8 10 11 12 13 13 14 15 15 15 15 14 13 12 11 11 10 9 8 7 7
16 16 16 16 16 16 16 16 16 16 16 16 15 15 15 14 14 15 15 15 15 15 15 15 14 14 14 14 14 13 12 12 12 11 12 12 11 12 11 9 10 12 13 13 12 11 12 12 10 8 8 7 7 7 8 9 10 12 13 12 14 14 14 14 13 13 12 11 10 9 9 8 8 7
17 17 17 18 18 18 19 18 18 17 17 17 17 17 17 16 15 15 16 16 17 16 16 15 15 16 16 16 16 13 12 12 13 12 13 14 14 12 10 9 11 13 13 13 13 13 13 13 12 10 9 8 8 7 7 7 8 11 12 11 12 13 13 13 12 12 12 11 10 9 9 9 8 8
19 19 19 19 20 20 21 21 20 19 18 18 18 18 18 18 17 17 17 16 16 16 17 16 16 16 16 14 13 12 12 13 14 14 14 16 14 11 10 10 12 13 14 13 13 14 14 13 13 12 11 11 9 8 7 5 6 10 11 10 10 11 11 11 11 11 11 11 11 10 9 9 9 10
20 20 20 20 20 21 23 24 23 22 20 19 19 19 19 19 19 18 19 18 17 16 15 15 14 14 14 13 13 14 16 17 18 17 16 16 15 12 11 11 11 11 13 13 13 14 14 13 14 14 13 12 11 10 9 6 5 8 10 8 8 8 9 9 9 10 10 11 11 10 10 10 11 12
22 21 21 21 21 21 23 24 25 25 24 22 21 20 19 19 20 19 19 18 18 17 16 15 14 14 14 15 15 17 19 18 19 18 16 17 17 14 12 11 11 11 13 15 15 14 14 14 14 15 15 14 13 12 11 9 5 7 9 8 6 6 6 7 7 8 9 9 9 10 10 10 11 13
23 22 22 22 22 22 23 24 24 25 26 25 24 24 22 21 20 20 19 19 18 18 17 16 16 15 16 17 17 17 16 15 14 12 10 10 11 9 8 9 11 12 13 14 14 14 15 15 15 17 17 14 13 14 14 11 8 6 8 8 5 4 5 5 6 6 7 7 8 9 10 11 11 13
26 25 24 24 23 23 23 24 24 25 26 26 26 27 26 25 24 23 22 22 21 20 19 18 18 18 18 18 18 17 15 14 13 12 11 12 11 11 11 11 13 14 13 14 14 15 17 16 16 19 18 15 13 15 15 14 10 7 8 8 6 4 3 3 4 5 5 6 6 7 8 9 10 12
27 27 26 26 25 25 24 24 25 27 28 28 28 28 29 29 29 29 28 27 25 23 22 21 21 21 20 20 20 19 17 16 15 14 15 15 15 15 15 15 16 15 14 13 13 15 19 18 16 19 18 17 17 17 17 15 12 9 9 9 6 4 2 2 3 3 4 4 5 5 6 7 9 11
27 27 28 28 27 27 27 26 26 26 28 29 30 31 31 31 31 32 33 33 32 31 29 27 26 25 24 23 23 22 19 18 17 17 17 18 18 18 18 18 18 17 16 16 14 15 21 21 18 19 17 16 19 20 18 17 14 11 10 8 6 4 2 1 2 2 3 3 3 3 4 5 7 10
26 26 26 27 27 28 28 28 27 25 25 26 29 31 32 33 33 33 34 35 35 36 37 37 36 34 32 29 28 26 23 22 22 22 22 22 20 20 20 20 20 20 19 19 17 18 23 22 19 19 17 16 17 19 18 18 16 13 11 8 6 5 3 1 1 1 2 3 2 2 2 3 5 9
27 27 26 26 26 26 26 27 27 27 25 24 25 27 30 31 32 33 34 35 35 36 38 41 42 41 39 37 35 32 28 26 24 23 23 23 22 21 21 20 21 20 17 17 18 21 24 23 20 18 15 15 17 18 19 19 17 16 13 10 7 6 4 3 2 2 2 2 2 2 1 2 4 7
27 27 28 28 27 26 26 25 25 26 27 26 25 25 26 27 28 29 30 31 31 32 33 36 38 39 39 39 39 38 34 31 27 23 21 22 21 21 18 16 18 18 17 17 17 19 20 20 20 18 14 14 16 17 19 20 19 17 15 12 9 7 6 5 4 3 3 2 2 1 1 1 3 5
28 27 27 28 29 30 30 28 27 25 26 29 29 28 26 26 27 26 26 25 27 28 28 30 31 33 35 35 36 38 37 36 33 30 28 25 22 20 18 17 18 19 21 22 19 18 18 17 17 17 15 14 16 17 19 20 20 19 16 14 12 9 8 8 6 5 5 4 3 3 2 3 3 2
28 29 29 29 30 32 32 32 32 30 28 29 31 31 29 28 28 28 27 26 26 27 28 29 31 32 32 32 33 34 35 36 36 36 35 31 26 24 22 22 17 13 18 24 21 19 20 18 17 18 14 9 10 17 20 20 20 20 18 16 15 12 10 9 8 7 7 6 5 4 4 5 5 4
25 25 27 28 30 32 33 34 35 35 34 32 31 31 31 30 31 30 28 28 28 28 28 29 30 32 32 32 33 33 33 34 35 36 36 35 32 29 26 25 21 16 20 26 21 18 19 18 16 18 16 9 6 14 21 22 22 21 20 18 17 14 13 12 11 10 9 8 7 6 5 7 9 9
25 24 25 26 28 30 32 33 34 36 36 36 34 33 34 34 33 31 29 29 29 29 29 28 27 29 31 33 34 34 34 34 34 35 36 37 36 35 32 28 25 24 28 30 24 20 21 21 18 17 16 14 9 11 17 22 23 23 22 20 18 17 16 15 14 13 11 9 8 7 6 6 9 10
26 26 25 25 25 25 27 29 31 33 35 37 38 39 39 38 36 34 33 30 28 27 28 27 25 26 28 30 32 32 32 31 31 32 33 34 35 36 37 36 32 30 31 31 25 21 22 22 21 19 15 13 11 9 13 17 21 23 23 22 21 19 18 17 16 15 14 12 9 8 7 5 7 9
30 30 29 27 25 24 24 24 25 29 32 35 38 41 42 41 39 37 35 33 30 27 27 26 25 25 26 27 28 29 30 29 28 28 30 31 31 32 34 36 37 37 37 34 28 25 23 20 18 17 15 12 11 9 10 13 16 22 26 25 24 22 20 20 18 16 16 15 12 9 8 7 7 8
29 28 28 29 30 29 26 24 24 26 29 33 36 37 39 41 42 40 37 34 31 29 28 27 27 26 26 26 27 28 29 29 29 29 30 31 32 32 33 34 35 36 37 36 32 30 28 25 22 20 19 17 14 13 12 12 13 20 26 27 25 24 24 23 21 19 18 17 15 13 12 10 9 8
32 29 27 28 31 32 31 29 27 27 27 30 34 35 35 37 41 42 40 35 32 31 30 30 30 30 30 30 30 30 29 29 29 29 30 31 30 31 31 33 35 36 36 36 35 32 29 28 27 24 22 22 21 19 18 16 15 18 23 26 25 25 27 27 25 22 21 19 18 17 14 12 12 11
41 39 34 31 30 31 32 31 31 28 25 24 28 33 35 37 40 42 40 37 34 33 33 32 33 33 33 33 34 33 32 32 32 31 31 30 30 28 28 29 33 35 35 35 35 33 31 30 29 27 25 24 24 23 22 20 17 16 20 25 24 21 23 27 26 24 24 23 21 18 15 14 14 14
43 45 43 40 36 33 33 33 33 32 30 26 25 30 35 38 41 41 40 38 36 36 35 34 34 34 33 33 34 34 33 35 36 36 34 32 31 30 28 27 28 30 32 33 33 32 31 30 29 29 28 26 25 25 23 21 20 18 18 23 25 21 22 27 29 26 26 25 21 18 17 17 17 15
35 40 43 44 44 41 39 36 33 32 33 32 29 30 33 36 39 41 40 39 38 37 36 34 34 34 32 32 33 33 34 35 36 36 36 35 34 32 29 26 25 26 27 29 31 31 31 30 29 29 30 29 28 25 22 21 22 22 18 20 26 25 23 26 29 29 27 26 24 22 21 21 21 19
25 32 37 40 42 42 39 33 27 26 27 28 28 30 32 34 37 39 40 40 39 37 36 35 35 33 32 33 34 33 33 35 34 34 34 35 35 34 31 28 27 26 26 26 27 28 29 30 30 30 31 31 30 27 23 20 22 24 21 20 23 25 24 25 28 30 29 27 26 24 23 23 24 22
25 28 32 35 36 35 31 27 24 24 22 21 23 25 27 30 34 37 39 40 40 38 37 37 37 35 34 34 34 33 33 33 33 32 33 34 34 32 31 29 29 28 27 26 25 25 26 28 29 29 30 30 28 28 27 24 22 23 24 22 23 25 27 27 28 30 32 31 28 26 24 25 26 25
30 30 29 28 29 28 26 26 26 25 23 22 22 23 24 28 32 34 37 38 37 36 37 38 38 36 36 35 34 34 34 33 32 31 32 32 32 32 31 30 29 28 28 27 27 26 25 25 26 24 22 22 21 21 26 29 28 25 24 25 25 26 28 29 29 30 31 31 29 28 25 25 27 27
33 32 29 28 26 24 24 26 27 25 25 25 24 24 25 26 29 33 36 37 36 36 36 37 37 37 37 37 36 34 33 32 31 31 30 30 30 30 30 30 29 29 28 28 28 27 24 24 25 23 17 14 11 12 19 30 33 30 28 27 26 26 28 29 29 29 30 31 31 31 28 26 26 27
32 29 27 28 27 25 24 26 26 25 25 25 25 26 27 28 30 32 34 35 37 39 38 37 38 38 37 36 36 35 33 32 30 29 29 29 28 28 28 28 28 28 28 27 27 26 23 22 25 24 17 10 6 8 16 26 30 31 31 31 28 27 27 28 27 27 30 32 34 35 33 29 26 24
32 28 26 28 29 27 27 27 26 25 25 25 25 26 29 31 32 33 32 30 33 38 40 38 37 36 35 35 34 32 30 29 28 28 27 27 26 26 25 25 24 24 25 25 25 25 24 23 25 26 21 13 7 9 14 19 22 27 32 34 32 28 27 29 30 29 30 33 35 36 35 31 27 24
32 30 28 29 29 28 28 28 27 26 25 25 26 27 28 28 28 29 30 30 29 31 35 38 38 37 35 33 31 30 29 27 25 23 24 25 26 24 21 19 18 18 18 21 24 27 27 26 26 29 29 24 20 18 18 17 19 23 28 32 35 34 31 31 32 31 31 32 32 32 30 28 27 24
33 33 33 32 31 29 28 27 26 26 26 26 26 26 24 23 24 27 30 32 34 35 35 35 36 36 34 34 32 27 21 18 18 21 25 26 24 22 22 22 22 21 20 23 26 28 30 31 32 33 34 33 31 28 22 17 17 20 23 26 31 35 36 35 34 32 31 29 28 27 27 26 25 22
29 31 33 34 32 30 28 27 27 28 27 26 25 24 24 24 26 28 29 30 33 36 37 37 36 34 33 32 26 15 11 16 22 26 28 25 22 24 28 29 27 23 22 24 27 29 33 36 37 36 35 33 30 25 18 14 15 20 24 25 26 30 35 38 37 35 33 31 29 27 26 25 23 22
23 25 28 30 30 31 31 30 29 28 27 25 24 25 26 28 29 30 30 31 33 36 36 37 38 37 30 17 7 9 20 30 30 26 24 23 24 26 27 27 26 24 24 25 29 32 34 34 34 33 32 32 29 22 16 15 19 21 23 23 24 26 32 37 39 36 33 32 31 29 26 24 20 18
19 19 19 20 21 24 27 28 28 27 26 26 26 25 24 25 26 27 28 29 30 31 33 34 34 28 17 6 2 10 26 33 31 28 27 27 26 24 23 24 25 27 28 30 32 33 31 29 29 29 29 30 30 26 22 23 25 24 22 21 22 23 27 34 36 34 30 29 31 32 32 28 20 15
15 14 14 15 15 16 16 17 18 20 23 24 25 25 24 25 26 28 29 29 29 32 35 36 31 20 9 5 10 18 24 27 28 30 30 28 27 27 27 27 27 26 28 30 31 31 29 28 27 29 29 30 31 30 28 27 26 24 23 22 21 21 25 31 34 32 28 26 27 29 31 30 24 18
16 15 14 14 14 15 14 13 13 14 15 16 18 19 19 18 19 20 22 24 27 31 34 34 28 20 16 20 25 27 27 27 26 26 27 28 30 30 29 29 28 28 28 29 28 28 28 26 25 28 30 31 31 32 31 29 26 23 22 23 23 23 24 26 30 33 32 27 23 23 25 26 23 18
Wind_Direction
223 222 221 235 256 273 293 307 302 297 152 142 313 345 89 100 11 319 0 4 328 323 327 141 151 178 17 39 197 224 233 238 278 318 298 272 288 319 328 329 339 356 12 19 20 15 18 24 20 14 10 9 13 16 20 21 18 14 13 13 10 8 7 6 5 5 7 10 19 34 45 48 46 44
220 225 224 220 225 244 258 261 254 246 226 193 212 246 226 159 146 103 317 317 342 333 331 21 152 152 75 19 267 236 238 270 294 317 290 261 275 307 313 306 313 334 359 17 19 15 16 19 20 15 11 13 15 17 20 20 17 15 15 15 13 12 11 10 9 8 11 19 33 49 54 53 51 52
218 222 227 221 221 232 242 248 243 224 213 211 216 237 242 189 195 213 236 300 343 311 314 329 331 226 69 23 276 254 291 299 289 301 284 256 267 292 298 292 296 309 337 3 10 11 12 11 16 16 11 12 14 18 22 21 18 15 15 17 15 15 15 14 13 12 15 28 44 55 59 57 56 56
216 217 224 225 226 233 242 251 250 226 199 202 216 232 242 222 226 241 235 260 290 278 292 311 306 298 319 338 281 262 292 291 276 296 301 266 269 283 286 284 285 291 308 341 359 1 2 5 10 12 9 7 11 18 23 22 20 16 15 18 17 17 18 16 16 15 20 33 48 56 61 60 58 56
222 217 219 224 227 230 236 242 250 242 212 205 219 228 234 231 227 228 227 236 263 274 281 290 285 288 298 297 285 277 287 287 279 298 304 285 279 274 270 276 278 279 290 315 343 350 353 0 4 5 4 2 5 15 22 21 19 16 15 18 18 18 20 19 18 18 22 32 44 54 58 58 56 53
233 227 220 222 225 227 232 233 239 244 230 216 217 219 224 231 232 231 229 225 240 263 272 281 281 279 278 278 278 276 284 286 281 288 296 292 282 264 254 275 278 268 275 298 327 340 344 351 356 2 4 1 1 8 16 19 19 16 14 16 18 19 20 22 20 19 22 28 37 47 50 52 50 47
233 234 228 226 228 226 230 231 232 239 242 238 232 223 218 223 228 232 231 227 232 249 260 268 272 274 276 276 276 279 285 284 280 286 292 290 284 264 253 278 281 267 267 290 316 327 332 339 348 357 1 0 359 3 10 15 16 17 15 14 18 19 20 23 23 20 21 24 29 34 37 41 41 39
231 233 232 231 230 229 230 231 231 236 243 247 250 245 232 229 236 242 236 231 231 238 252 261 264 270 276 277 277 277 280 280 278 282 283 281 283 276 267 280 280 266 263 287 306 312 317 324 332 347 359 359 359 2 7 9 12 17 16 13 17 20 19 22 24 22 20 20 23 27 27 28 30 33
231 232 234 233 232 233 234 234 233 235 238 241 246 251 247 242 248 255 255 251 247 244 250 259 264 268 271 274 277 276 275 277 278 280 281 279 278 274 269 274 275 267 269 288 297 298 305 309 310 325 345 353 354 356 2 5 8 15 17 13 15 19 20 21 23 23 21 18 19 22 23 24 27 29
234 234 235 236 234 233 235 235 234 235 236 236 239 244 245 242 242 245 247 250 253 252 252 257 263 266 267 271 275 275 268 266 270 275 277 279 280 276 264 256 267 277 282 288 288 288 297 299 298 307 320 331 336 336 349 0 3 10 16 14 14 18 20 21 22 22 23 21 18 17 17 19 20 23
234 235 235 236 237 236 236 235 236 237 236 235 236 240 244 243 241 243 243 242 242 245 250 255 259 263 266 266 266 267 265 261 260 263 269 275 279 275 259 249 262 273 279 282 281 280 284 286 286 290 296 302 307 311 329 350 359 6 12 13 15 19 20 21 22 22 24 25 23 18 14 13 11 12
235 236 237 236 236 237 236 236 236 237 237 236 235 238 242 242 240 242 245 246 244 242 242 246 251 257 262 263 264 271 277 272 261 255 259 265 266 262 259 264 268 267 268 273 276 275 275 274 275 277 279 284 287 290 304 326 349 358 3 9 17 21 22 22 22 23 23 24 27 25 18 15 13 12
237 239 240 241 240 238 237 236 234 234 235 237 237 238 239 240 239 238 240 245 251 254 251 249 253 259 265 268 270 269 267 264 259 254 249 249 251 255 261 269 274 270 268 270 269 271 276 276 276 276 274 272 271 273 281 290 324 346 351 1 15 24 25 23 23 26 24 21 25 29 26 23 23 20
239 240 242 245 247 247 245 241 237 234 233 234 237 239 240 239 239 238 238 238 243 252 257 257 257 261 264 264 263 261 260 260 257 251 245 244 247 250 254 262 274 277 276 274 268 268 275 275 272 271 270 267 264 262 265 268 286 327 338 346 5 25 31 28 27 28 25 21 21 26 30 32 33 30
241 243 245 248 250 252 254 252 247 241 237 236 236 238 240 239 239 239 239 238 238 243 249 251 251 251 255 257 258 261 265 266 265 261 261 263 260 255 254 264 274 278 279 276 268 265 271 270 266 266 264 260 259 258 258 260 264 297 321 329 345 16 34 33 34 31 25 21 19 21 29 38 40 36
242 244 246 249 252 253 255 255 252 248 245 242 240 241 242 242 242 242 240 239 238 239 242 244 245 245 250 254 255 257 261 266 274 282 286 289 288 282 273 266 268 273 274 272 268 270 276 272 266 267 261 250 251 255 253 252 252 273 302 314 325 353 29 33 34 34 24 20 20 18 26 37 41 39
241 243 245 248 251 254 256 257 253 247 245 245 245 246 247 247 247 246 245 243 241 240 240 241 242 243 245 249 252 253 257 263 269 273 274 275 276 275 270 265 267 271 270 265 262 268 277 275 268 267 259 246 248 251 247 242 239 256 288 304 313 326 2 23 24 25 16 17 22 17 22 36 42 43
241 242 244 246 249 252 255 259 259 252 245 243 244 245 246 248 250 250 249 248 247 245 243 243 245 245 243 245 248 249 250 252 254 257 262 265 264 265 267 267 268 267 266 265 259 262 272 271 263 262 257 243 245 248 243 236 234 247 273 289 301 306 314 349 0 5 358 1 17 19 25 44 51 51
244 244 245 246 248 251 252 256 260 260 253 244 241 242 244 247 250 252 252 252 252 250 246 245 246 248 248 247 247 248 249 251 254 257 260 262 261 263 266 267 267 267 270 271 261 256 266 267 255 253 252 239 238 240 234 229 230 244 260 270 280 286 275 260 292 326 332 334 353 12 36 72 71 62
249 251 251 250 251 252 253 253 255 258 258 249 240 239 243 248 250 253 256 258 258 257 253 250 250 251 253 253 251 251 250 251 254 257 258 256 254 257 260 260 262 265 271 273 257 247 257 262 251 246 244 233 227 228 225 224 229 238 247 252 257 262 254 233 222 239 278 291 310 338 349 126 95 73
246 250 252 253 254 253 254 255 255 255 255 251 243 239 241 246 249 254 258 260 263 264 262 258 256 256 257 258 257 256 253 252 252 252 251 247 243 245 246 247 254 259 265 271 263 253 260 262 248 239 236 231 227 224 224 225 228 232 237 242 246 247 243 228 208 211 230 234 244 276 274 202 126 88
244 248 250 251 252 253 253 254 255 255 252 249 245 242 243 244 246 251 256 258 262 266 265 262 260 258 258 259 259 259 257 255 252 248 247 246 244 245 246 249 256 263 264 266 265 264 270 267 248 235 227 221 222 223 224 225 225 228 230 234 237 237 232 224 210 204 214 218 214 208 217 218 178 126
244 247 249 250 250 251 252 252 252 253 252 250 247 245 244 246 248 251 253 254 257 260 261 259 257 256 256 256 256 256 256 256 253 250 249 248 247 248 251 253 256 260 262 261 259 260 262 259 246 234 219 202 207 216 221 223 223 227 229 228 230 231 225 222 217 209 210 215 211 199 194 200 195 184
244 248 250 251 250 250 250 251 251 251 250 250 249 246 244 246 249 252 254 255 255 257 258 259 257 256 255 255 254 254 253 252 251 250 249 248 247 247 248 250 249 248 256 260 258 255 258 261 255 238 225 219 205 203 212 220 221 223 226 226 227 226 220 219 217 213 213 213 210 205 197 192 192 187
244 246 248 249 250 250 250 251 252 250 249 248 248 247 245 247 249 252 254 256 257 257 258 259 258 255 252 251 252 252 252 252 250 250 250 250 249 246 244 245 245 245 253 258 256 253 255 258 260 250 235 232 227 199 200 213 220 221 222 225 226 224 221 219 216 213 215 214 210 211 207 193 191 190
241 244 246 247 249 251 251 252 253 252 250 248 247 247 248 249 249 249 251 255 257 258 258 257 254 249 245 244 246 247 248 250 250 251 252 253 253 250 247 245 243 244 250 255 253 252 254 254 252 250 241 236 238 216 191 202 218 221 221 224 226 226 225 220 215 214 215 215 213 211 210 201 191 189
238 239 239 240 242 246 248 252 257 258 254 249 247 248 250 250 249 248 248 251 253 256 257 256 252 246 240 239 241 243 244 245 246 247 250 252 254 254 252 250 247 247 251 255 252 249 253 257 250 244 243 243 246 233 204 203 214 215 216 221 224 225 225 221 219 220 217 214 212 207 206 210 199 185
241 242 242 242 242 242 243 246 252 258 259 255 251 250 251 251 250 248 246 247 249 252 254 254 252 250 244 240 239 241 242 244 244 244 247 248 249 250 252 253 252 250 250 251 250 247 249 253 252 248 247 247 245 240 233 231 222 210 210 215 219 221 222 219 219 221 217 214 212 210 212 219 216 203
244 245 249 252 249 245 242 240 242 249 256 256 253 251 250 250 249 247 246 246 247 248 249 250 250 250 248 245 244 243 244 246 246 246 247 248 248 250 251 251 251 252 250 248 247 246 244 247 249 250 248 245 242 240 239 242 237 218 206 204 209 217 219 215 213 216 215 212 211 213 218 225 225 221
245 245 246 249 253 254 250 245 241 242 246 252 252 249 246 245 245 245 244 243 244 245 246 247 247 248 248 248 248 248 247 246 246 247 247 248 249 250 249 246 245 247 248 247 246 245 243 243 246 247 246 244 242 240 239 239 239 232 215 204 203 209 213 209 206 210 211 208 208 213 219 222 225 228
248 247 247 247 250 257 261 259 254 247 244 245 249 248 244 241 241 242 242 242 242 244 245 247 248 249 249 248 247 246 245 244 244 244 246 247 247 247 246 244 242 243 244 244 244 244 245 245 244 244 244 243 242 241 241 239 237 236 227 213 206 206 209 205 203 207 210 208 207 211 213 213 217 221
254 253 252 251 251 253 257 260 262 258 251 247 247 248 247 243 241 241 241 241 242 243 245 247 248 247 246 245 244 242 241 242 242 242 241 242 244 244 244 245 245 245 244 243 241 241 243 244 242 241 241 242 242 241 239 240 239 236 231 220 214 212 212 207 204 206 209 207 206 207 209 212 217 219
268 262 256 253 252 251 250 249 251 252 250 246 244 245 247 245 242 241 239 239 240 241 242 243 245 244 244 243 241 240 240 240 240 239 238 238 239 240 241 243 244 244 243 242 239 237 238 240 241 241 241 242 244 242 237 237 239 235 230 225 219 216 215 213 209 206 203 202 202 204 208 214 220 224
271 261 252 249 249 248 245 242 241 240 240 239 237 238 239 239 239 239 239 239 240 240 240 241 242 241 241 241 240 239 239 240 239 237 235 234 234 234 235 238 241 242 241 242 241 238 237 237 236 237 238 239 241 240 237 235 236 234 230 228 226 223 219 215 212 208 204 203 202 202 207 214 219 225
261 252 246 245 247 246 244 242 241 239 238 239 239 239 238 236 236 237 238 238 238 238 238 240 241 240 239 239 239 238 237 239 239 237 235 233 230 229 230 233 236 238 238 239 240 238 237 232 225 221 222 227 234 238 237 235 234 234 231 229 230 229 221 213 210 208 206 204 202 201 205 211 216 222
255 249 245 245 245 243 242 243 241 237 235 237 239 241 243 242 240 240 239 237 234 233 234 235 236 236 236 236 237 238 237 237 236 236 235 232 228 227 228 231 234 235 236 238 239 238 235 226 213 206 207 216 226 237 239 237 234 232 230 230 230 229 221 212 208 208 206 204 202 202 205 210 213 219
250 247 247 248 249 247 246 246 244 240 237 237 239 241 244 246 246 247 247 242 234 230 232 233 233 234 234 235 237 238 237 237 237 236 236 234 231 229 229 231 233 234 235 238 240 239 236 225 211 205 207 212 218 234 242 242 239 234 231 230 228 226 220 211 206 206 206 206 206 206 208 211 213 218
246 246 247 250 252 252 251 250 249 247 245 244 244 245 248 250 251 253 258 255 243 234 232 233 234 234 233 232 233 236 237 238 238 238 239 239 238 235 234 236 238 238 238 241 243 240 237 228 214 208 209 214 221 233 240 241 238 235 234 230 225 222 218 211 207 205 204 206 209 210 211 212 213 218
244 245 248 251 253 254 254 254 255 255 254 252 253 255 260 267 272 274 277 281 276 261 246 238 235 236 235 233 232 231 232 234 236 240 244 245 245 246 248 251 255 253 247 245 245 241 236 230 220 212 212 218 227 234 239 242 243 244 243 236 228 223 218 213 211 209 206 206 207 208 209 211 215 221
246 244 246 251 255 257 257 258 259 260 259 258 259 263 269 277 285 288 290 293 295 288 275 261 249 241 235 233 232 230 229 234 239 240 241 241 242 244 244 243 245 243 235 232 235 233 227 226 225 222 221 227 234 240 245 249 250 249 247 241 233 228 225 221 216 212 209 205 201 200 202 205 209 215
253 250 251 253 256 259 260 261 260 260 260 260 260 260 260 263 266 271 279 284 285 285 285 283 276 267 255 245 236 229 233 242 239 235 236 239 242 244 241 237 237 235 228 226 230 229 225 226 229 230 229 231 234 238 243 247 246 245 246 245 240 233 229 228 224 218 213 207 199 196 197 198 198 200
265 262 260 259 259 261 260 260 260 260 260 260 260 259 261 263 263 265 269 270 270 272 275 276 276 280 282 276 239 207 229 238 238 236 236 237 237 239 240 237 235 233 229 228 232 234 233 232 232 230 228 226 224 224 228 235 241 244 246 247 244 235 228 227 227 225 220 211 203 199 195 190 188 190
277 277 276 274 272 271 267 264 263 264 265 267 268 269 269 270 271 273 274 273 273 274 274 271 271 275 288 329 9 238 240 242 241 241 240 236 233 234 237 237 237 237 236 236 240 242 240 236 230 226 222 220 217 218 223 231 236 240 241 240 239 235 227 223 223 223 222 216 212 210 204 196 191 197
283 283 287 291 296 297 294 286 279 276 277 277 276 274 273 274 276 279 280 279 278 276 274 274 276 274 268 282 285 268 256 250 245 242 242 242 240 239 239 239 239 239 238 239 243 245 242 236 229 222 218 217 216 217 222 228 231 234 235 234 232 230 228 221 216 216 219 217 212 210 208 203 202 208
294 287 284 286 293 302 308 307 299 289 283 280 277 275 276 279 283 286 284 280 278 276 275 276 279 277 270 270 271 267 261 257 254 248 246 246 245 243 243 242 240 239 239 239 239 239 238 235 228 221 218 218 218 219 221 225 226 227 230 229 227 226 225 218 211 212 215 214 208 205 206 205 204 202